星链-31873 (STARLINK-31873 )

导读

STARLINK-31873是美国于2024年5月18日发射的星链卫星,隶属于SpaceX公司的星链星座项目。星链计划旨在构建全球卫星互联网星座,提供覆盖全球的高速互联网接入服务,该卫星入轨后将参与星座组网,进一步扩展星链星座的服务覆盖范围与通信能力。

Basic Information
目录编号:
59790
目录名称:
STARLINK-31873
国际标识:
2024-093J
轨道中心:
EARTH
卫星名称:
星链-31873
卫星全名:
星链-31873 (STARLINK-31873 )
卫星状态:
在轨 (已飞行847 天)
发射日期:
2024-05-18 UTC
国别 :
美国 (US)
星等 :
--
This satellite is enrolled in the Space Conjunction Data Service (SCDS) and the current flight risk assessment level is: High Risk
Orbit Information
数据来源 国际轨道数据
星历时间: 2026-09-11T07:19:45+0800
1天前
查看轨道信息
半长轴: 6861.233km
偏心率: 0.0001911
轨道倾角: 43.003°
近地点辐角 284.336°
升交点赤经 242.376°
平近点角 75.728°
近地点: 481.784km
远地点: 484.408km
周期: 94.268分钟
每日圈数: 15.275644
Detailed Information
固有亮度:
5
最大亮度:
1.5
卫星平台:
Starlink v2.0 mini
覆盖范围:
全球
运营商:
太空探索技术公司
运营商所在国:
美国
制造商(研发单位):
太空探索技术公司
制造商所在国:
美国
使用方式:
暂无
Satellite Introduction
星链(Starlink)计划是由太空探索技术公司(SpaceX)提出的一个巨型低轨卫星互联网星座项目,计划在2019年至2024年间在太空搭建由约1.2万颗卫星组成的“星链”网络,其中1584颗将部署在地球上空550千米处的近地轨道,并从2020年开始工作。该卫星仍在工作。
2D Orbit Map
3D Orbit Map
Orbit Altitude Analysis Chart
Orbit Inclination Analysis Chart
Orbit Comprehensive Analysis Chart
View Comprehensive Chart
Conjunction Data List
Event ID Objects TCA Miss Dist (km) Collision Risk Probability Collision Risk Index (CRI) Action
CDM_260913-042805-979006-425521
2026-09-13T
04:28:07+0000
0.333 km
远距离
3.263112E-4 高风险 0.85
CDM_260912-203205-979006-783321
2026-09-12T
20:32:32+0000
0.394 km
远距离
1.891762E-4 高风险 0.81
CDM_260913-205605-979006-425521
2026-09-13T
20:56:45+0000
1.144 km
极远距离
1.091347E-5 中风险 0.56
CDM_260913-051005-979006-783321
2026-09-13T
05:10:23+0000
1.063 km
极远距离
1.03603E-5 中风险 0.55
CDM_260913-192205-979006-425521
2026-09-13T
19:22:35+0000
1.526 km
极远距离
4.158951E-6 低风险 0.47
CDM_260913-025305-979006-425521
2026-09-13T
02:53:58+0000
1.553 km
极远距离
3.928132E-6 低风险 0.47
CDM_260912-125904-562505-979023
2026-09-12T
12:59:46+0000
1.971 km
极远距离
2.915532E-6 低风险 0.44
CDM_260913-060205-979006-425521
2026-09-13T
06:02:16+0000
1.897 km
极远距离
2.206297E-6 低风险 0.42
CDM_260913-064405-979006-783321
2026-09-13T
06:44:33+0000
1.818 km
极远距离
1.872934E-6 低风险 0.4
CDM_260912-185805-979006-783321
2026-09-12T
18:58:23+0000
1.821 km
极远距离
1.865338E-6 低风险 0.4
Miss Distance Evolution Trend with All Objects
Collision Probability Evolution Trend with All Objects